KM5HG-3 Weather Reports


Display with metric or nautical units.
time (UTC)temp
F
wind
direction
speed
MPH
gust
MPH
rain 1hr
in
rain 24hr
in
rain mn
in
humidity
%
barometer
mb
20190619065011 67 0 0.0 0.0 0.00 0.00 0.00
20190619064512 66 0 0.0 0.0 0.00 0.00 0.00
20190619064012 66 0 0.0 0.0 0.00 0.00 0.00
20190619063511 66 0 0.0 0.0 0.00 0.00 0.00
20190619063011 66 0 0.0 0.0 0.00 0.00 0.00
20190619062511 66 0 0.0 0.0 0.00 0.00 0.00
20190619062015 66 100 0.0 1.0 0.00 0.00 0.00
20190619061515 66 150 2.0 4.0 0.00 0.00 0.00
20190619061014 66 148 2.0 5.0 0.00 0.00 0.00
20190619060512 67 124 2.0 6.0 0.00 0.00 0.00
20190619060013 66 100 1.0 5.0 0.00 0.00 0.00
20190619055512 66 107 2.0 4.0 0.00 0.00 0.00
20190619055011 66 96 2.0 4.0 0.00 0.00 0.00
20190619054511 67 129 4.0 7.0 0.00 0.00 0.00
20190619054011 67 120 4.0 7.0 0.00 0.00 0.00
20190619053511 67 110 4.0 7.0 0.00 0.00 0.00
20190619053011 67 98 4.0 7.0 0.00 0.00 0.00
20190619052511 67 44 1.0 4.0 0.00 0.00 0.00
20190619052011 67 37 1.0 4.0 0.00 0.00 0.00
20190619051511 67 48 2.0 5.0 0.00 0.00 0.00
20190619051011 67 117 3.0 5.0 0.00 0.00 0.00
20190619050511 67 134 2.0 4.0 0.00 0.00 0.00
20190619050011 67 108 2.0 4.0 0.00 0.00 0.00
20190619045012 67 28 2.0 4.0 0.00 0.00 0.00
20190619044511 68 177 4.0 8.0 0.00 0.00 0.00
20190619044011 67 128 3.0 6.0 0.00 0.00 0.00
20190619043512 68 89 6.0 10.0 0.00 0.00 0.00
20190619043011 67 38 12.0 20.0 0.00 0.00 0.00
20190619042511 67 38 17.0 26.0 0.00 0.00 0.00
20190619042011 67 7 12.0 21.0 0.00 0.00 0.00
20190619041511 72 6 13.0 19.0 0.00 0.00 0.00
20190619041012 71 340 10.0 14.0 0.00 0.00 0.00
20190619040512 71 11 13.0 19.0 0.00 0.00 0.00
20190619040011 71 45 15.0 20.0 0.00 0.00 0.00
20190619035511 73 350 10.0 17.0 0.00 0.00 0.00
20190619035011 74 8 9.0 19.0 0.00 0.00 0.00
20190619034512 75 346 12.0 19.0 0.00 0.00 0.00
20190619034011 75 314 15.0 21.0 0.00 0.00 0.00
20190619033511 74 319 13.0 22.0 0.00 0.00 0.00
20190619033011 77 305 4.0 10.0 0.00 0.00 0.00
20190619032512 77 149 2.0 4.0 0.00 0.00 0.00
20190619032011 77 136 3.0 5.0 0.00 0.00 0.00
20190619031511 78 149 4.0 5.0 0.00 0.00 0.00
20190619031011 78 148 3.0 5.0 0.00 0.00 0.00
20190619030511 78 156 3.0 5.0 0.00 0.00 0.00
20190619030011 78 150 2.0 3.0 0.00 0.00 0.00
20190619025511 77 136 3.0 4.0 0.00 0.00 0.00
20190619025011 77 135 2.0 3.0 0.00 0.00 0.00
20190619024511 78 127 2.0 3.0 0.00 0.00 0.00
20190619024011 78 104 2.0 4.0 0.00 0.00 0.00
20190619023510 78 121 1.0 3.0 0.00 0.00 0.00
20190619023011 78 129 3.0 4.0 0.00 0.00 0.00
20190619022511 79 127 3.0 5.0 0.00 0.00 0.00
20190619022011 78 129 2.0 3.0 0.00 0.00 0.00
20190619021511 79 134 2.0 3.0 0.00 0.00 0.00
20190619021012 80 129 3.0 4.0 0.00 0.00 0.00
20190619020510 80 143 3.0 4.0 0.00 0.00 0.00
20190619020010 80 159 2.0 4.0 0.00 0.00 0.00
20190619015510 80 131 3.0 4.0 0.00 0.00 0.00
20190619015011 80 138 3.0 4.0 0.00 0.00 0.00
20190619014511 80 148 0.0 2.0 0.00 0.00 0.00
20190619014010 80 0 0.0 0.0 0.00 0.00 0.00
20190619013511 80 0 0.0 0.0 0.00 0.00 0.00
20190619013010 80 0 0.0 0.0 0.00 0.00 0.00
20190619012511 80 0 0.0 0.0 0.00 0.00 0.00
20190619012011 82 0 0.0 0.0 0.00 0.00 0.00
20190619011510 85 0 0.0 0.0 0.00 0.00 0.00
20190619011010 87 0 0.0 0.0 0.00 0.00 0.00
20190619010510 91 0 0.0 0.0 0.00 0.00 0.00
20190619010010 91 0 0.0 0.0 0.00 0.00 0.00
20190619005510 88 150 1.0 3.0 0.00 0.00 0.00
20190619005010 88 177 2.0 5.0 0.00 0.00 0.00
20190619004511 88 166 2.0 4.0 0.00 0.00 0.00
20190619004010 88 149 3.0 6.0 0.00 0.00 0.00
20190619003510 88 162 4.0 6.0 0.00 0.00 0.00
20190619003011 88 159 4.0 7.0 0.00 0.00 0.00
20190619002510 89 174 4.0 7.0 0.00 0.00 0.00
20190619002010 89 165 3.0 7.0 0.00 0.00 0.00
20190619001510 91 170 3.0 6.0 0.00 0.00 0.00
20190619001010 90 198 5.0 9.0 0.00 0.00 0.00
20190619000512 91 193 4.0 9.0 0.00 0.00 0.00
20190619000012 91 162 4.0 7.0 0.00 0.00 0.00
20190618235512 90 193 5.0 9.0 0.00 0.00 0.00
20190618235012 90 124 7.0 11.0 0.00 0.00 0.00
20190618234512 89 162 6.0 9.0 0.00 0.00 0.00
20190618234012 90 150 7.0 10.0 0.00 0.00 0.00
20190618233513 92 193 4.0 8.0 0.00 0.00 0.00
20190618233014 94 191 3.0 5.0 0.00 0.00 0.00
20190618232512 92 163 3.0 6.0 0.00 0.00 0.00
20190618232012 93 210 5.0 7.0 0.00 0.00 0.00
20190618231512 93 190 5.0 8.0 0.00 0.00 0.00
20190618231014 93 135 3.0 6.0 0.00 0.00 0.00
20190618230512 91 215 4.0 6.0 0.00 0.00 0.00
20190618230012 93 188 5.0 7.0 0.00 0.00 0.00
20190618225512 92 180 5.0 8.0 0.00 0.00 0.00
20190618225012 91 152 5.0 8.0 0.00 0.00 0.00
20190618224513 91 172 6.0 9.0 0.00 0.00 0.00
20190618224015 90 114 6.0 10.0 0.00 0.00 0.00
20190618223513 88 128 6.0 9.0 0.00 0.00 0.00
20190618223012 90 143 7.0 10.0 0.00 0.00 0.00
20190618222513 91 145 6.0 9.0 0.00 0.00 0.00
20190618222012 97 145 3.0 8.0 0.00 0.00 0.00
20190618221513 91 150 5.0 8.0 0.00 0.00 0.00
20190618221012 91 150 6.0 8.0 0.00 0.00 0.00
20190618220512 94 162 3.0 6.0 0.00 0.00 0.00
20190618220012 93 127 4.0 7.0 0.00 0.00 0.00
20190618215512 91 128 5.0 8.0 0.00 0.00 0.00
20190618215013 94 143 4.0 7.0 0.00 0.00 0.00
20190618214513 97 167 2.0 5.0 0.00 0.00 0.00
20190618214012 90 187 2.0 5.0 0.00 0.00 0.00
20190618213513 91 183 2.0 4.0 0.00 0.00 0.00
20190618213012 90 149 4.0 7.0 0.00 0.00 0.00
20190618212512 94 141 2.0 7.0 0.00 0.00 0.00
20190618212013 86 176 4.0 6.0 0.00 0.00 0.00
20190618211513 87 91 3.0 7.0 0.00 0.00 0.00
20190618211013 91 121 3.0 6.0 0.00 0.00 0.00
20190618210512 99 122 1.0 6.0 0.00 0.00 0.00
20190618210013 94 0 0.0 0.0 0.00 0.00 0.00
20190618205512 100 356 0.0 2.0 0.00 0.00 0.00
20190618205014 97 83 2.0 6.0 0.00 0.00 0.00
20190618204514 99 188 3.0 6.0 0.00 0.00 0.00
20190618204015 98 155 2.0 4.0 0.00 0.00 0.00
20190618203513 95 211 2.0 6.0 0.00 0.00 0.00
20190618203014 97 195 2.0 6.0 0.00 0.00 0.00
20190618202013 94 257 2.0 5.0 0.00 0.00 0.00
20190618201513 99 84 2.0 4.0 0.00 0.00 0.00
20190618201013 95 70 3.0 5.0 0.00 0.00 0.00
20190618200517 100 68 1.0 4.0 0.00 0.00 0.00
20190618200014 106 0 0.0 2.0 0.00 0.00 0.00
20190618195512 101 343 0.0 3.0 0.00 0.00 0.00
20190618195012 95 352 0.0 3.0 0.00 0.00 0.00
20190618194013 95 25 1.0 4.0 0.00 0.00 0.00
20190618193525 91 53 1.0 5.0 0.00 0.00 0.00
20190618193013 91 41 1.0 3.0 0.00 0.00 0.00
20190618192512 91 104 1.0 4.0 0.00 0.00 0.00
20190618192014 87 84 3.0 6.0 0.00 0.00 0.00
20190618191515 96 53 1.0 4.0 0.00 0.00 0.00
20190618191012 97 49 1.0 4.0 0.00 0.00 0.00
20190618190514 98 45 0.0 4.0 0.00 0.00 0.00
20190618190012 104 0 0.0 0.0 0.00 0.00 0.00
20190618185514 103 14 0.0 3.0 0.00 0.00 0.00
20190618185013 101 309 0.0 2.0 0.00 0.00 0.00
20190618184513 101 23 0.0 3.0 0.00 0.00 0.00
20190618184012 101 35 2.0 6.0 0.00 0.00 0.00
20190618183514 96 70 2.0 5.0 0.00 0.00 0.00
20190618183012 94 55 3.0 5.0 0.00 0.00 0.00
20190618182013 102 0 0.0 0.0 0.00 0.00 0.00
20190618181511 101 0 0.0 0.0 0.00 0.00 0.00
20190618181011 102 173 0.0 2.0 0.00 0.00 0.00
20190618180515 100 0 0.0 0.0 0.00 0.00 0.00
20190618180012 98 215 1.0 3.0 0.00 0.00 0.00
20190618175012 99 0 0.0 0.0 0.00 0.00 0.00
20190618174516 99 51 0.0 3.0 0.00 0.00 0.00
20190618174011 97 60 0.0 3.0 0.00 0.00 0.00
20190618173511 102 0 0.0 0.0 0.00 0.00 0.00
20190618173011 98 122 1.0 5.0 0.00 0.00 0.00
20190618172012 93 18 1.0 3.0 0.00 0.00 0.00
20190618171015 92 308 2.0 4.0 0.00 0.00 0.00
20190618165515 94 0 0.0 0.0 0.00 0.00 0.00
20190618165011 88 6 1.0 4.0 0.00 0.00 0.00
20190618164515 89 311 1.0 4.0 0.00 0.00 0.00
20190618164011 103 122 0.0 2.0 0.00 0.00 0.00
20190618163512 99 107 0.0 2.0 0.00 0.00 0.00
20190618163012 93 51 2.0 4.0 0.00 0.00 0.00
20190618162515 92 58 3.0 5.0 0.00 0.00 0.00
20190618162011 93 51 3.0 6.0 0.00 0.00 0.00
20190618161013 90 68 2.0 4.0 0.00 0.00 0.00
20190618160512 92 58 2.0 5.0 0.00 0.00 0.00
20190618160011 107 17 0.0 3.0 0.00 0.00 0.00
20190618155512 103 51 0.0 1.0 0.00 0.00 0.00
20190618155012 90 68 1.0 4.0 0.00 0.00 0.00
20190618154513 91 82 2.0 5.0 0.00 0.00 0.00
20190618154013 90 58 1.0 5.0 0.00 0.00 0.00
20190618153513 95 304 0.0 2.0 0.00 0.00 0.00
20190618153011 98 309 0.0 3.0 0.00 0.00 0.00
20190618152513 97 0 0.0 0.0 0.00 0.00 0.00
20190618152012 89 277 1.0 6.0 0.00 0.00 0.00
20190618151011 101 0 0.0 0.0 0.00 0.00 0.00
20190618150515 100 0 0.0 0.0 0.00 0.00 0.00
20190618150011 95 267 0.0 2.0 0.00 0.00 0.00
20190618145514 97 0 0.0 0.0 0.00 0.00 0.00
20190618145012 91 0 0.0 0.0 0.00 0.00 0.00
20190618144514 92 0 0.0 0.0 0.00 0.00 0.00
20190618144011 92 0 0.0 0.0 0.00 0.00 0.00
20190618143513 89 0 0.0 0.0 0.00 0.00 0.00
20190618143012 97 84 0.0 3.0 0.00 0.00 0.00
20190618142515 94 76 0.0 3.0 0.00 0.00 0.00
20190618142010 94 0 0.0 0.0 0.00 0.00 0.00
20190618141513 90 0 0.0 0.0 0.00 0.00 0.00
20190618141012 92 0 0.0 0.0 0.00 0.00 0.00
20190618140512 90 0 0.0 0.0 0.00 0.00 0.00
20190618140011 90 0 0.0 0.0 0.00 0.00 0.00
20190618135513 92 0 0.0 0.0 0.00 0.00 0.00
20190618135011 89 0 0.0 0.0 0.00 0.00 0.00
20190618134511 91 0 0.0 0.0 0.00 0.00 0.00
20190618134014 92 0 0.0 0.0 0.00 0.00 0.00
20190618133014 86 0 0.0 0.0 0.00 0.00 0.00
20190618132512 85 150 0.0 1.0 0.00 0.00 0.00
20190618132012 83 0 0.0 0.0 0.00 0.00 0.00
20190618131512 84 0 0.0 0.0 0.00 0.00 0.00
20190618131011 83 0 0.0 0.0 0.00 0.00 0.00
20190618130512 81 0 0.0 0.0 0.00 0.00 0.00
20190618130011 79 0 0.0 0.0 0.00 0.00 0.00
20190618125512 80 0 0.0 0.0 0.00 0.00 0.00
20190618125011 81 0 0.0 0.0 0.00 0.00 0.00
20190618124511 85 0 0.0 0.0 0.00 0.00 0.00
20190618124011 80 0 0.0 0.0 0.00 0.00 0.00
20190618123511 77 0 0.0 0.0 0.00 0.00 0.00
20190618123011 74 0 0.0 0.0 0.00 0.00 0.00
20190618122512 72 0 0.0 0.0 0.00 0.00 0.00
20190618122012 73 0 0.0 0.0 0.00 0.00 0.00
20190618121511 76 0 0.0 0.0 0.00 0.00 0.00
20190618121011 75 0 0.0 0.0 0.00 0.00 0.00
20190618120511 74 0 0.0 0.0 0.00 0.00 0.00
20190618120010 74 0 0.0 0.0 0.00 0.00 0.00
20190618115510 72 0 0.0 0.0 0.00 0.00 0.00
20190618115011 71 0 0.0 0.0 0.00 0.00 0.00
20190618114511 69 0 0.0 0.0 0.00 0.00 0.00
20190618114012 68 0 0.0 0.0 0.00 0.00 0.00
20190618113511 66 0 0.0 0.0 0.00 0.00 0.00
20190618113011 65 0 0.0 0.0 0.00 0.00 0.00
20190618112511 66 0 0.0 0.0 0.00 0.00 0.00
20190618111512 64 0 0.0 0.0 0.00 0.00 0.00
20190618111010 64 0 0.0 0.0 0.00 0.00 0.00
20190618110510 64 0 0.0 0.0 0.00 0.00 0.00
20190618110012 64 0 0.0 0.0 0.00 0.00 0.00
20190618105510 64 0 0.0 0.0 0.00 0.00 0.00
20190618105011 64 0 0.0 0.0 0.00 0.00 0.00
20190618104511 65 0 0.0 0.0 0.00 0.00 0.00
20190618104010 65 0 0.0 0.0 0.00 0.00 0.00
20190618103511 64 0 0.0 0.0 0.00 0.00 0.00
20190618103011 63 0 0.0 0.0 0.00 0.00 0.00
20190618102510 64 0 0.0 0.0 0.00 0.00 0.00
20190618102011 64 0 0.0 0.0 0.00 0.00 0.00
20190618101511 64 0 0.0 0.0 0.00 0.00 0.00
20190618101011 65 0 0.0 0.0 0.00 0.00 0.00
20190618100511 65 0 0.0 0.0 0.00 0.00 0.00
20190618100011 65 0 0.0 0.0 0.00 0.00 0.00
20190618095511 65 0 0.0 0.0 0.00 0.00 0.00
20190618095012 66 0 0.0 0.0 0.00 0.00 0.00
20190618094510 65 0 0.0 0.0 0.00 0.00 0.00
20190618094011 66 0 0.0 0.0 0.00 0.00 0.00
20190618093510 66 0 0.0 0.0 0.00 0.00 0.00
20190618093013 65 0 0.0 0.0 0.00 0.00 0.00
20190618092513 65 0 0.0 0.0 0.00 0.00 0.00
20190618092012 66 0 0.0 0.0 0.00 0.00 0.00
20190618091512 66 0 0.0 0.0 0.00 0.00 0.00
20190618091013 66 159 0.0 1.0 0.00 0.00 0.00
20190618090513 66 0 0.0 0.0 0.00 0.00 0.00
20190618090012 66 0 0.0 0.0 0.00 0.00 0.00
20190618085512 66 0 0.0 0.0 0.00 0.00 0.00
20190618085013 66 0 0.0 0.0 0.00 0.00 0.00
20190618084513 66 0 0.0 0.0 0.00 0.00 0.00
20190618084012 66 0 0.0 0.0 0.00 0.00 0.00
20190618083513 66 0 0.0 0.0 0.00 0.00 0.00
20190618083013 66 0 0.0 0.0 0.00 0.00 0.00
20190618082514 66 0 0.0 0.0 0.00 0.00 0.00
20190618082015 66 0 0.0 0.0 0.00 0.00 0.00
20190618081513 66 0 0.0 0.0 0.00 0.00 0.00
20190618081013 66 0 0.0 0.0 0.00 0.00 0.00
20190618080512 66 0 0.0 0.0 0.00 0.00 0.00
20190618080013 66 0 0.0 0.0 0.00 0.00 0.00
20190618075513 66 0 0.0 0.0 0.00 0.00 0.00
20190618075012 66 0 0.0 0.0 0.00 0.00 0.00
20190618074512 66 0 0.0 0.0 0.00 0.00 0.00
20190618074013 66 0 0.0 0.0 0.00 0.00 0.00
20190618073513 66 0 0.0 0.0 0.00 0.00 0.00
20190618073012 66 0 0.0 0.0 0.00 0.00 0.00
20190618072512 66 0 0.0 0.0 0.00 0.00 0.00
20190618072012 66 0 0.0 0.0 0.00 0.00 0.00
20190618071513 66 0 0.0 0.0 0.00 0.00 0.00
20190618071012 66 0 0.0 0.0 0.00 0.00 0.00
20190618070512 66 0 0.0 0.0 0.00 0.00 0.00
20190618070012 66 0 0.0 0.0 0.00 0.00 0.00
20190618065512 66 0 0.0 0.0 0.00 0.00 0.00